Location: Bacea
(45.9500°N, 22.6667°E)
Time: 11:34:48
(UTC+00:00)

Cosmos 2263 Rocket - Visible Passes

Search period start: 29 May 2022 00:00
Search period end: 08 June 2022 00:00
Orbit: 824 x 848 km, 71.0° (Epoch: 28 May)

Date Brightness Start Highest point End Pass type
(mag) Time Alt. Az. Time Alt. Az. Time Alt. Az.
29 May 2.2 19:07:55 10° NNW 19:13:33 85° ENE 19:18:48 12° SSE visible
29 May 4.4 20:53:40 10° WNW 20:56:39 15° W 20:59:38 10° SW visible
30 May 2.2 18:51:06 10° NNW 18:56:43 79° ENE 19:02:17 10° SSE visible
30 May 4.4 20:36:35 10° WNW 20:39:55 16° W 20:43:13 10° SW visible
31 May 4.3 20:19:34 10° WNW 20:23:10 18° W 20:26:45 10° SW visible
01 Jun 4.3 20:02:35 10° NW 20:06:24 19° W 20:10:14 10° SW visible
02 Jun 4.2 19:45:36 10° NW 19:49:39 21° W 19:53:42 10° SSW visible
03 Jun 4.1 19:28:38 10° NW 19:32:54 23° WSW 19:37:08 10° SSW visible
04 Jun 4.1 19:11:42 10° NW 19:16:08 25° WSW 19:20:33 10° SSW visible
05 Jun 4.0 18:54:47 10° NW 18:59:22 27° WSW 19:03:56 10° SSW visible
